Simultaneous Nadir Overpasses (SNOs) Predictions

Prediction of SNOs between AQUA and METOP-C Satellite Orbit:

Table of predicted SNOs for the next 14.0 days since TLE Epoch: 1/30/2021
Index Date (AQUA) Time (AQUA) Lat,Lon (AQUA) SZA (AQUA ) Date (METOP-C) Time (METOP-C) Lat,Lon (METOP-C) SZA (METOP-C ) Distance(km) Time Diff (sec)
1 01/31/2021 20:08:50 -73.70, 52.25 89.07 01/31/2021 20:08:01 -73.69, 52.34 89.08 3.08 49
2 01/31/2021 20:58:18 73.75,-140.22 90.98 01/31/2021 20:58:39 73.74,-140.20 90.96 1.22 21
3 02/03/2021 15:43:06 -73.69, 118.71 89.90 02/03/2021 15:42:24 -73.68, 118.73 89.90 1.02 42
4 02/03/2021 16:32:34 73.74, -73.76 90.16 02/03/2021 16:33:02 73.72, -73.83 90.14 2.67 28
5 02/06/2021 11:17:21 -73.68,-174.84 90.76 02/06/2021 11:16:46 -73.67,-174.88 90.76 2.02 35
6 02/06/2021 12:06:49 73.74, -7.33 89.30 02/06/2021 12:07:23 73.76, -7.34 89.31 2.02 34
7 02/09/2021 06:51:37 -73.68,-108.41 91.64 02/09/2021 06:51:08 -73.70,-108.39 91.62 2.35 29
8 02/09/2021 07:41:05 73.74, 59.10 88.42 02/09/2021 07:41:46 73.74, 59.03 88.41 2.30 41
9 02/12/2021 02:25:53 -73.69, -41.99 92.55 02/12/2021 02:25:31 -73.69, -42.02 92.55 1.09 22
10 02/12/2021 03:15:21 73.76, 125.51 87.51 02/12/2021 03:16:08 73.77, 125.51 87.51 1.37 47



Historial Predications of SNOs between AQUA and METOP-C
